Location: Navajo
(48.7922°N, 105.0603°W)
Time: 15:02:32
(UTC+00:00)

ITUPSAT 1 - Pass Details

Date: 07 July 2022
Orbit: 701 x 711 km, 98.6° (Epoch: 13 August)

Event Time Altitude Azimuth Distance (km) Brightness Sun altitude
Rises 05:29:18 0° 358° (N) 3,115 ? -15.5°
Reaches altitude 10° 05:33:02 10° 328° (NNW) 2,193 ? -15.7°
Maximum altitude 05:34:45 12° 307° (NW) 2,066 ? -15.8°
Drops below altitude 10° 05:36:27 10° 286° (WNW) 2,190 ? -15.9°
Sets 05:40:11 0° 256° (WSW) 3,106 ? -16.1°
